Date String (YYYY-MM-DD hh:mm:ss) UTC,Instrument flags,Ambient pressure (hPa),Sample flow (lpm),Bypass flow (lpm),Sample temperature (°C),Ambient temperature (°C),ASC tube jacket temperature (°C),LED temperature (°C),Box temperature (°C),Sample RH (%),Span deviation,Mass concentration (μg/m³),Mass concentration (μg/m³),Mass concentration (μg/m³)
DateTimeUTC,F1_M11,P_M11,Q1_M11,Q2_M11,T1_M11,T2_M11,T3_M11,T4_M11,T5_M11,U1_M11,ZSPAN_M11,X2_M11,X0_M11,X1_M11
2022-02-19 14:00:00,,0827.9,4.99,0.00,22.3,21.5,00.0,31.4,24.0,09.3,0000.0,0002.54,0003.87,0002.15
2022-02-19 14:01:00,,0827.9,4.99,0.00,22.3,21.5,00.0,31.4,24.0,09.3,0000.0,0002.58,0004.00,0002.15
2022-02-19 14:02:00,,0828.0,5.00,0.00,22.3,21.8,00.0,31.4,24.1,09.3,0000.0,0002.61,0004.11,0002.13
2022-02-19 14:03:00,,0828.1,5.02,0.00,22.4,22.7,00.0,31.4,24.3,09.2,0000.0,0002.61,0004.16,0002.11
2022-02-19 14:04:00,,0828.0,4.99,0.00,22.6,23.3,00.0,31.5,24.6,09.2,0000.0,0002.61,0004.21,0002.10
2022-02-19 14:05:00,,0828.0,4.99,0.00,22.7,23.1,00.0,31.5,24.6,09.1,0000.0,0002.64,0004.37,0002.07
2022-02-19 14:06:00,,0828.1,5.01,0.00,22.7,22.9,00.0,31.5,24.6,09.1,0000.0,0002.68,0004.63,0002.06
2022-02-19 14:07:00,,0828.0,5.00,0.00,22.7,22.7,00.0,31.5,24.5,09.1,0000.0,0002.70,0004.74,0002.03
2022-02-19 14:08:00,,0828.3,5.00,0.00,22.6,22.5,00.0,31.5,24.4,09.1,0000.0,0002.71,0004.76,0002.01
2022-02-19 14:09:00,,0828.2,5.00,0.00,22.6,22.3,00.0,31.5,24.4,09.1,0000.0,0002.67,0004.62,0001.98
2022-02-19 14:10:00,,0828.1,5.00,0.00,22.6,22.2,00.0,31.5,24.3,09.2,0000.0,0002.65,0004.49,0001.95
2022-02-19 14:11:00,,0828.1,5.01,0.00,22.6,22.1,00.0,31.5,24.3,09.2,0000.0,0002.62,0004.24,0001.92
2022-02-19 14:12:00,,0828.1,5.01,0.00,22.5,22.0,00.0,31.5,24.3,09.2,0000.0,0002.60,0004.51,0001.87
2022-02-19 14:13:00,,0828.1,4.99,0.00,22.5,21.9,00.0,31.5,24.2,09.2,0000.0,0002.59,0005.74,0001.82
2022-02-19 14:14:00,,0828.0,4.99,0.00,22.5,21.8,00.0,31.5,24.2,09.3,0000.0,0002.61,0006.00,0001.77
2022-02-19 14:15:00,,0828.1,5.01,0.00,22.4,21.8,00.0,31.5,24.2,09.2,0000.0,0002.62,0006.09,0001.74
2022-02-19 14:16:00,,0828.1,4.99,0.00,22.4,21.7,00.0,31.5,24.1,09.3,0000.0,0002.59,0006.15,0001.70
2022-02-19 14:17:00,,0828.2,4.99,0.00,22.4,21.7,00.0,31.5,24.1,09.3,0000.0,0002.52,0006.34,0001.64
2022-02-19 14:18:00,,0828.3,5.00,0.00,22.4,21.7,00.0,31.5,24.1,09.3,0000.0,0002.46,0006.85,0001.59
2022-02-19 14:19:00,,0828.3,5.01,0.00,22.4,21.7,00.0,31.4,24.1,09.3,0000.0,0002.41,0007.89,0001.54
2022-02-19 14:20:00,,0828.1,5.00,0.00,22.4,21.6,00.0,31.4,24.1,09.3,0000.0,0002.42,0008.27,0001.51
2022-02-19 14:21:00,,0828.2,5.00,0.00,22.3,21.6,00.0,31.4,24.1,09.3,0000.0,0002.47,0009.05,0001.47
2022-02-19 14:22:00,,0828.1,4.99,0.00,22.3,21.6,00.0,31.4,24.1,09.3,0000.0,0002.43,0009.81,0001.41
2022-02-19 14:23:00,,0828.2,5.01,0.00,22.3,21.6,00.0,31.4,24.1,09.3,0000.0,0002.39,0009.78,0001.36
2022-02-19 14:24:00,,0828.1,4.99,0.00,22.3,21.6,00.0,31.4,24.0,09.3,0000.0,0002.30,0009.10,0001.31
2022-02-19 14:25:00,,0828.2,4.99,0.00,22.3,21.5,00.0,31.4,24.0,09.3,0000.0,0002.23,0009.08,0001.26
2022-02-19 14:26:00,,0828.1,4.99,0.00,22.3,21.5,00.0,31.4,24.0,09.3,0000.0,0002.14,0009.06,0001.20
2022-02-19 14:27:00,,0828.1,5.01,0.00,22.2,21.5,00.0,31.3,23.9,09.4,0000.0,0002.04,0008.92,0001.13
2022-02-19 14:28:00,,0828.1,5.02,0.00,22.2,21.5,00.0,31.3,23.9,09.4,0000.0,0001.96,0008.62,0001.07
2022-02-19 14:29:00,,0828.1,5.00,0.00,22.2,21.5,00.0,31.3,23.9,09.4,0000.0,0001.91,0008.27,0001.02
2022-02-19 14:30:00,,0828.1,4.99,0.00,22.2,21.5,00.0,31.3,23.9,09.4,0000.0,0001.86,0007.62,0000.96
2022-02-19 14:31:00,,0828.2,5.00,0.00,22.3,22.2,00.0,31.3,24.1,09.4,0000.0,0001.76,0007.09,0000.89
2022-02-19 14:32:00,,0828.1,4.99,0.00,22.4,23.0,00.0,31.4,24.3,09.3,0000.0,0001.62,0005.69,0000.83
2022-02-19 14:33:00,,0828.1,4.99,0.00,22.5,23.1,00.0,31.4,24.5,09.2,0000.0,0001.58,0004.23,0000.79
2022-02-19 14:34:00,,0828.0,5.01,0.00,22.6,22.9,00.0,31.4,24.5,09.2,0000.0,0001.47,0003.87,0000.74
2022-02-19 14:35:00,,0828.0,5.01,0.00,22.6,22.7,00.0,31.4,24.4,09.1,0000.0,0001.37,0003.60,0000.70
2022-02-19 14:36:00,,0828.1,4.98,0.00,22.5,22.5,00.0,31.4,24.4,09.1,0000.0,0001.24,0003.17,0000.65
2022-02-19 14:37:00,,0828.1,5.02,0.00,22.5,22.4,00.0,31.4,24.3,09.1,0000.0,0001.15,0002.82,0000.62
2022-02-19 14:38:00,,0828.1,5.00,0.00,22.5,22.3,00.0,31.4,24.3,09.1,0000.0,0001.13,0002.79,0000.61
2022-02-19 14:39:00,,0828.2,5.00,0.00,22.5,22.2,00.0,31.4,24.3,09.2,0000.0,0001.10,0003.69,0000.60
2022-02-19 14:40:00,,0828.2,5.00,0.00,22.5,22.1,00.0,31.4,24.3,09.2,0000.0,0001.08,0004.02,0000.60
2022-02-19 14:41:00,,0828.1,5.01,0.00,22.5,22.1,00.0,31.4,24.3,09.2,0000.0,0001.07,0003.68,0000.60
2022-02-19 14:42:00,,0828.1,4.99,0.00,22.5,22.0,00.0,31.4,24.3,09.2,0000.0,0001.07,0003.55,0000.61
2022-02-19 14:43:00,,0828.2,4.99,0.00,22.5,22.0,00.0,31.5,24.3,09.2,0000.0,0001.05,0003.42,0000.63
2022-02-19 14:44:00,,0828.1,4.99,0.00,22.5,22.0,00.0,31.5,24.3,09.2,0000.0,0001.03,0003.57,0000.66
2022-02-19 14:45:00,,0828.1,5.00,0.00,22.6,21.9,00.0,31.5,24.3,09.2,0000.0,0001.06,0004.50,0000.70
2022-02-19 14:46:00,,0828.2,5.01,0.00,22.6,21.9,00.0,31.5,24.3,09.2,0000.0,0001.11,0005.40,0000.76
2022-02-19 14:47:00,,0828.2,5.00,0.00,22.5,21.9,00.0,31.5,24.3,09.2,0000.0,0001.21,0006.63,0000.82
2022-02-19 14:48:00,,0828.1,4.99,0.00,22.5,21.9,00.0,31.5,24.3,09.2,0000.0,0001.30,0006.86,0000.89
2022-02-19 14:49:00,,0828.1,4.99,0.00,22.5,21.9,00.0,31.5,24.3,09.2,0000.0,0001.38,0006.99,0000.95
2022-02-19 14:50:00,,0828.1,5.01,0.00,22.6,21.9,00.0,31.5,24.3,09.2,0000.0,0001.45,0006.12,0001.02
2022-02-19 14:51:00,,0828.1,5.01,0.00,22.6,21.9,00.0,31.5,24.3,09.1,0000.0,0001.48,0005.87,0001.06
2022-02-19 14:52:00,,0828.1,5.00,0.00,22.6,21.9,00.0,31.5,24.4,09.1,0000.0,0001.49,0006.07,0001.10
2022-02-19 14:53:00,,0828.1,4.99,0.00,22.6,21.9,00.0,31.5,24.4,09.0,0000.0,0001.48,0005.97,0001.13
2022-02-19 14:54:00,,0828.2,5.02,0.00,22.6,21.9,00.0,31.5,24.4,09.0,0000.0,0001.48,0005.90,0001.14
2022-02-19 14:55:00,,0828.1,4.99,0.00,22.6,21.9,00.0,31.5,24.3,09.0,0000.0,0001.49,0005.61,0001.14
2022-02-19 14:56:00,,0828.1,5.00,0.00,22.6,21.9,00.0,31.5,24.4,09.0,0000.0,0001.49,0004.71,0001.14
2022-02-19 14:57:00,,0828.2,5.01,0.00,22.6,21.9,00.0,31.5,24.4,09.1,0000.0,0001.46,0003.75,0001.13
2022-02-19 14:58:00,,0828.2,5.01,0.00,22.6,21.9,00.0,31.5,24.4,09.2,0000.0,0001.42,0002.66,0001.12
2022-02-19 14:59:00,,0828.2,5.00,0.00,22.6,21.9,00.0,31.5,24.4,09.3,0000.0,0001.36,0002.48,0001.09
